When you browse on this site, cookies collect data to enhance your experience and personalize the content and advertising you see.
Visit our Privacy Policy to learn more. By continuing to use the site, you agree to this use of cookies and data.
  • In Hungary
  • List of Countries
  • For 7 days
  • Water Temperature
  • Weather Map
  • News
  • Weather Widgets
  • user-avatar
    Login

    Hourly Weather Najac

    Today, 9 December, Monday

    Time Temperature Precipitation Wind Pressure Humidity
    00:00 +7°C° 0 mm 4 mps 736 mmHg 94%
    01:00 +7°C° 0.3 mm 4 mps 735 mmHg 92%
    02:00 +7°C° 0.3 mm 5 mps 735 mmHg 91%
    03:00 +7°C° 0.3 mm 6 mps 735 mmHg 89%
    04:00 +7°C° 0.8 mm 6 mps 735 mmHg 89%
    05:00 +7°C° 0.8 mm 6 mps 735 mmHg 89%
    06:00 +7°C° 0.8 mm 5 mps 735 mmHg 89%
    07:00 +7°C° 0.6 mm 6 mps 735 mmHg 88%
    08:00 +7°C° 0.6 mm 6 mps 735 mmHg 86%
    09:00 +7°C° 0.6 mm 6 mps 735 mmHg 85%
    10:00 +7°C° 0.6 mm 6 mps 735 mmHg 84%
    11:00 +7°C° 0.6 mm 6 mps 735 mmHg 83%
    12:00 +6°C° 0.6 mm 7 mps 735 mmHg 82%
    13:00 +6°C° 0.4 mm 7 mps 736 mmHg 82%
    14:00 +7°C° 0.4 mm 6 mps 736 mmHg 82%
    15:00 +7°C° 0.4 mm 6 mps 736 mmHg 81%
    16:00 +5°C° 0.1 mm 6 mps 737 mmHg 83%
    17:00 +5°C° 0.1 mm 5 mps 737 mmHg 85%
    18:00 +5°C° 0.1 mm 5 mps 738 mmHg 87%
    19:00 +4°C° 0.1 mm 4 mps 739 mmHg 87%
    20:00 +4°C° 0.1 mm 4 mps 739 mmHg 87%
    21:00 +4°C° 0.1 mm 4 mps 740 mmHg 88%
    22:00 +3°C° 0 mm 4 mps 741 mmHg 89%
    23:00 +3°C° 0 mm 3 mps 741 mmHg 91%

    Tomorrow, 10 December, Tuesday

    Time Temperature Precipitation Wind Pressure Humidity
    00:00 +2°C° 0 mm 3 mps 742 mmHg 92%
    01:00 +3°C° 0 mm 2 mps 741 mmHg 93%
    02:00 +2°C° 0 mm 2 mps 741 mmHg 94%
    03:00 +2°C° 0 mm 2 mps 741 mmHg 95%
    04:00 +2°C° 0 mm 2 mps 742 mmHg 96%
    05:00 +2°C° 0 mm 1 mps 742 mmHg 96%
    06:00 +2°C° 0 mm 1 mps 742 mmHg 96%
    07:00 +2°C° 0 mm 1 mps 742 mmHg 94%
    08:00 +3°C° 0 mm 1 mps 742 mmHg 91%
    09:00 +3°C° 0 mm 1 mps 741 mmHg 89%
    10:00 +5°C° 0 mm 1 mps 741 mmHg 82%
    11:00 +6°C° 0 mm 1 mps 740 mmHg 75%
    12:00 +7°C° 0 mm 1 mps 740 mmHg 68%
    13:00 +7°C° 0 mm 1 mps 739 mmHg 69%
    14:00 +7°C° 0 mm 1 mps 738 mmHg 71%
    15:00 +7°C° 0 mm 1 mps 738 mmHg 73%
    16:00 +5°C° 0 mm 1 mps 738 mmHg 76%
    17:00 +4°C° 0 mm 1 mps 737 mmHg 80%
    18:00 +2°C° 0 mm 1 mps 737 mmHg 83%
    19:00 +3°C° 0 mm 1 mps 737 mmHg 81%
    20:00 +3°C° 0 mm 1 mps 737 mmHg 79%
    21:00 +3°C° 0 mm 1 mps 736 mmHg 77%
    22:00 +3°C° 0 mm 1 mps 736 mmHg 74%
    23:00 +3°C° 0 mm 1 mps 736 mmHg 71%

    Day after tomorrow, 11 December, Wednesday

    Time Temperature Precipitation Wind Pressure Humidity
    00:00 +3°C° 0 mm 1 mps 735 mmHg 69%
    01:00 +3°C° 0 mm 1 mps 735 mmHg 65%
    02:00 +3°C° 0 mm 1 mps 734 mmHg 62%
    03:00 +3°C° 0 mm 1 mps 734 mmHg 58%
    04:00 +4°C° 0 mm 1 mps 734 mmHg 56%
    05:00 +4°C° 0 mm 1 mps 733 mmHg 54%
    06:00 +3°C° 0 mm 0 mps 733 mmHg 52%
    07:00 +4°C° 0.4 mm 1 mps 733 mmHg 61%
    08:00 +4°C° 0.4 mm 1 mps 734 mmHg 71%
    09:00 +4°C° 0.4 mm 1 mps 734 mmHg 81%
    10:00 +4°C° 1.6 mm 1 mps 734 mmHg 87%
    11:00 +4°C° 1.6 mm 1 mps 735 mmHg 92%
    12:00 +5°C° 1.6 mm 1 mps 735 mmHg 98%
    13:00 +5°C° 0.3 mm 2 mps 735 mmHg 94%
    14:00 +5°C° 0.3 mm 3 mps 735 mmHg 90%
    15:00 +7°C° 0.3 mm 3 mps 735 mmHg 86%
    16:00 +5°C° 0 mm 3 mps 735 mmHg 88%
    17:00 +4°C° 0 mm 3 mps 735 mmHg 91%
    18:00 +3°C° 0 mm 3 mps 735 mmHg 93%
    19:00 +4°C° 0.3 mm 3 mps 735 mmHg 93%
    20:00 +4°C° 0.3 mm 4 mps 735 mmHg 93%
    21:00 +5°C° 0.3 mm 5 mps 735 mmHg 93%
    22:00 +5°C° 0.2 mm 4 mps 735 mmHg 93%
    23:00 +4°C° 0.2 mm 4 mps 735 mmHg 93%

    12 December, Thursday

    Time Temperature Precipitation Wind Pressure Humidity
    00:00 +4°C° 0.2 mm 3 mps 735 mmHg 93%
    01:00 +3°C° 0.1 mm 3 mps 735 mmHg 94%
    02:00 +3°C° 0.1 mm 3 mps 735 mmHg 94%
    03:00 +3°C° 0.1 mm 3 mps 735 mmHg 94%
    04:00 +4°C° 0.2 mm 2 mps 735 mmHg 95%
    05:00 +4°C° 0.2 mm 2 mps 734 mmHg 96%
    06:00 +4°C° 0.2 mm 2 mps 734 mmHg 96%
    07:00 +4°C° 0.4 mm 2 mps 734 mmHg 96%
    08:00 +5°C° 0.4 mm 2 mps 734 mmHg 96%
    09:00 +6°C° 0.4 mm 1 mps 734 mmHg 96%
    10:00 +5°C° 0.2 mm 2 mps 734 mmHg 96%
    11:00 +6°C° 0.2 mm 2 mps 733 mmHg 96%
    12:00 +5°C° 0.2 mm 3 mps 733 mmHg 96%
    13:00 +5°C° 0.4 mm 3 mps 732 mmHg 96%
    14:00 +5°C° 0.4 mm 3 mps 731 mmHg 95%
    15:00 +5°C° 0.4 mm 3 mps 730 mmHg 95%
    16:00 +5°C° 0.2 mm 3 mps 730 mmHg 94%
    17:00 +5°C° 0.2 mm 3 mps 729 mmHg 93%
    18:00 +5°C° 0.2 mm 3 mps 728 mmHg 92%
    19:00 +5°C° 0.6 mm 3 mps 728 mmHg 92%
    20:00 +7°C° 0.6 mm 3 mps 727 mmHg 93%
    21:00 +6°C° 0.6 mm 4 mps 726 mmHg 93%
    22:00 +6°C° 1.2 mm 4 mps 725 mmHg 94%
    23:00 +6°C° 1.2 mm 4 mps 725 mmHg 94%

    13 December, Friday

    Time Temperature Precipitation Wind Pressure Humidity
    00:00 +7°C° 1.2 mm 5 mps 724 mmHg 95%
    01:00 +8°C° 2.5 mm 6 mps 723 mmHg 95%
    02:00 +8°C° 2.5 mm 7 mps 722 mmHg 95%
    03:00 +9°C° 2.5 mm 8 mps 721 mmHg 95%
    04:00 +10°C° 2.6 mm 8 mps 721 mmHg 94%
    05:00 +10°C° 2.6 mm 9 mps 720 mmHg 93%
    06:00 +11°C° 2.6 mm 10 mps 720 mmHg 92%
    07:00 +11°C° 2.8 mm 10 mps 720 mmHg 91%
    08:00 +9°C° 2.8 mm 10 mps 721 mmHg 90%
    09:00 +9°C° 2.8 mm 10 mps 721 mmHg 89%
    10:00 +10°C° 0.6 mm 9 mps 722 mmHg 88%
    11:00 +9°C° 0.6 mm 8 mps 723 mmHg 86%
    12:00 +9°C° 0.6 mm 8 mps 723 mmHg 84%
    13:00 +8°C° 0.4 mm 7 mps 723 mmHg 86%
    14:00 +8°C° 0.4 mm 6 mps 724 mmHg 87%
    15:00 +7°C° 0.4 mm 5 mps 724 mmHg 89%
    16:00 +7°C° 0.7 mm 4 mps 724 mmHg 91%
    17:00 +8°C° 0.7 mm 3 mps 725 mmHg 93%
    18:00 +8°C° 0.7 mm 3 mps 725 mmHg 95%
    19:00 +9°C° 1.7 mm 3 mps 725 mmHg 96%
    20:00 +8°C° 1.7 mm 4 mps 725 mmHg 96%
    21:00 +10°C° 1.7 mm 4 mps 726 mmHg 97%
    22:00 +9°C° 1.6 mm 6 mps 726 mmHg 95%
    23:00 +10°C° 1.6 mm 7 mps 726 mmHg 94%

    14 December, Saturday

    Time Temperature Precipitation Wind Pressure Humidity
    00:00 +10°C° 1.6 mm 8 mps 726 mmHg 92%
    01:00 +10°C° 1.1 mm 8 mps 726 mmHg 92%
    02:00 +10°C° 1.1 mm 8 mps 726 mmHg 93%
    03:00 +10°C° 1.1 mm 7 mps 726 mmHg 93%
    04:00 +10°C° 1.5 mm 7 mps 726 mmHg 94%
    05:00 +10°C° 1.5 mm 7 mps 727 mmHg 94%
    06:00 +10°C° 1.5 mm 7 mps 727 mmHg 94%
    07:00 +10°C° 1.2 mm 7 mps 728 mmHg 94%
    08:00 +10°C° 1.2 mm 6 mps 728 mmHg 93%
    09:00 +10°C° 1.2 mm 6 mps 729 mmHg 93%
    10:00 +10°C° 0.8 mm 6 mps 729 mmHg 93%
    11:00 +10°C° 0.8 mm 6 mps 729 mmHg 93%
    12:00 +10°C° 0.8 mm 6 mps 730 mmHg 93%
    13:00 +10°C° 0.3 mm 5 mps 730 mmHg 93%
    14:00 +10°C° 0.3 mm 5 mps 730 mmHg 93%
    15:00 +11°C° 0.3 mm 4 mps 730 mmHg 93%
    16:00 +11°C° 0.1 mm 4 mps 730 mmHg 92%
    17:00 +10°C° 0.1 mm 3 mps 730 mmHg 92%
    18:00 +10°C° 0.1 mm 3 mps 731 mmHg 91%
    19:00 +10°C° 0.1 mm 2 mps 731 mmHg 91%
    20:00 +10°C° 0.1 mm 2 mps 731 mmHg 92%
    21:00 +11°C° 0.1 mm 1 mps 732 mmHg 92%
    22:00 +10°C° 0 mm 1 mps 732 mmHg 92%
    23:00 +9°C° 0 mm 1 mps 732 mmHg 93%
    Show more